Regional Weather Roundup
Issued by NWS State College, PA

Current Version | Previous Version | Text Only | Print | Product List | Glossary On
Versions: 1 2 3 4 5 6 7 8 9 10 11 12 13 14 15 16 17 18 19 20 21 22 23 24 25 26 27 28 29 30 31 32 33 34 35 36 37 38 39 40 41 42 43 44 45 46 47 48 49 50
000
ASUS41 KCTP 211610
RWRCTP

REGIONAL WEATHER ROUNDUP
NATIONAL WEATHER SERVICE STATE COLLEGE PA
1200 PM EDT WED OCT 21 2020

Note: "fair" indicates few or no clouds below 12,000 feet with no
significant weather and/or obstructions to visibility.

* = STATION THAT DOES NOT REPORT PRECIPITATION /E.G. RAIN...SNOW...ETC/
    THUNDER OR FOG.

PAZ002>004-007>009-013>016-020>023-029>032-211700-
WESTERN PENNSYLVANIA

CITY           SKY/WX    TMP DP  RH WIND       PRES   REMARKS
ERIE           CLOUDY    68  60  75 SW15G26   30.10R
MEADVILLE      CLOUDY    65  60  84 S12G18    30.14S
FRANKLIN       PTSUNNY   69  61  75 SW17G24   30.17R
NEW CASTLE     CLOUDY    68  61  78 SW9       30.18R
BEAVER COUNTY  PTSUNNY   73  60  64 SW13G18   30.18S
BUTLER         PTSUNNY   70  61  73 SW9G17    30.19R
PITTSBURGH INT PTSUNNY   71  59  65 SW14G22   30.18R
PITTSBURGH     MOSUNNY   71  60  68 SW15      30.19R
INDIANA*       SUNNY     73  59  60 SW9G18    30.23F
LATROBE        SUNNY     73  59  60 SW15G23   30.20F
WASHINGTON CO* MOSUNNY   72  61  68 SW14G20   30.23R
$$

PAZ004>006-010>012-017>019-024>028-033>037-041-042-045-046-049>053-211700-
CENTRAL PENNSYLVANIA

CITY           SKY/WX    TMP DP  RH WIND       PRES   REMARKS
BRADFORD       PTSUNNY   68  58  70 S10G20    30.14F
ST MARYS       PTSUNNY   68  61  77 SW9G22    30.20
DUBOIS         MOSUNNY   69  58  67 SW14G21   30.16F
CLEARFIELD     MOSUNNY   72  58  61 VRB7      30.19F
JOHNSTOWN      MOSUNNY   69  54  58 SW12      30.23F
SOMERSET       FAIR      68  54  60 SW12G17   30.25S
ALTOONA        SUNNY     72  56  57 SW15      30.23F
STATE COLLEGE  SUNNY     70  59  68 SW12      30.21F
REEDSVILLE     FAIR      70  61  73 SE3       30.21F
WELLSBORO      FAIR      66  59  77 S14       30.16F
WILLIAMSPORT   PTSUNNY   69  59  70 E8        30.19F
SELINSGROVE    MOSUNNY   71  59  65 VRB7G17   30.22F
FT INDIANTOWN  CLOUDY    65  65 100 CALM      30.26F
CAPITAL CITY   CLOUDY    71  62  73 SE5       30.25F
HARRISBURG       N/A    N/A N/A N/A MISG      30.24F
YORK           CLOUDY    69  61  75 SW9       30.25F
$$

PAZ038>040-043-044-047-048-054-055-060>062-067>071-211700-
EASTERN PENNSYLVANIA

CITY           SKY/WX    TMP DP  RH WIND       PRES   REMARKS
TOWANDA        NOT AVBL
SCRANTON       CLOUDY    71  59  65 S9        30.24F
MOUNT POCONO   CLOUDY    59  57  93 SW10      30.29S
HAZLETON       CLOUDY    66  57  72 S6        30.29F
LEHIGHTON      CLOUDY    63  63 100 S3        30.28F
ALLENTOWN      CLOUDY    64  60  87 SW5       30.28F
QN CITY/ALNTWN CLOUDY    64  61  88 S6        30.29F
QUAKERTOWN*    CLOUDY    63  63 100 CALM      30.29F FOG
PERKASIE*      FOG       61  61 100 CALM      30.30F VSB 3/4
DOYLESTOWN     CLOUDY    63  62  97 S3        30.28F FOG
READING        CLOUDY    66  63  90 S5        30.27F
LANCASTER      CLOUDY    67  63  87 SW5       30.27F
COATESVILLE    FOG       63  63 100 SE5       30.29F VSB 3/4
WEST CHESTER   CLOUDY    63  61  94 CALM      30.29F FOG
POTTSTOWN      CLOUDY    62  60  93 VRB5      30.29F
BLUE BELL      CLOUDY    63 N/A N/A S6        30.30S HAZE
NORTH PHILA    CLOUDY    64  63  96 VRB3      30.30F FOG
PHILADELPHIA   CLOUDY    63  62  97 S3        30.29F FOG
$$




USA.gov is the U.S. government's official web portal to all federal, state and local government web resources and services.